Regional Weather Roundup
Issued by NWS Newport/Morehead, NC

Current Version | Previous Version | Text Only | Print | Product List | Glossary Off
Versions: 1 2 3 4 5 6 7 8 9 10 11 12 13 14 15 16 17 18 19 20 21 22 23 24 25 26 27 28 29 30 31 32 33 34 35 36 37 38 39 40 41 42 43 44 45 46 47 48 49 50
000 ASUS42 KMHX 050924 RWRMHX WEATHER ROUNDUP FOR EASTERN NORTH CAROLINA NATIONAL WEATHER SERVICE NEWPORT/MOREHEAD CITY NC 400 AM EST MON DEC 05 2016 NOTE: "FAIR" INDICATES FEW OR NO CLOUDS BELOW 12,000 FEET WITH NO SIGNIFICANT WEATHER AND/OR OBSTRUCTIONS TO VISIBILITY NCZ015>017-031-032-045>047-102-103-051000- NORTH COAST CITY SKY/WX TMP DP RH WIND PRES REMARKS EDENTON DRIZZLE 51 49 92 SE9 29.95F ELIZABETH CITY LGT RAIN 49 48 97 SE6 29.95F KITTY HAWK LGT RAIN 53 53 100 E6 29.95F MANTEO RAIN 52 52 100 SE9 29.97F $$ NCZ045>047-081-094-103-104-051000- CENTRAL COAST CITY SKY/WX TMP DP RH WIND PRES REMARKS FRISCO LGT RAIN 64 63 96 SW14G28 29.95F FOG $$ NCZ095-097-098-100-101-051000- SOUTHERN COAST CITY SKY/WX TMP DP RH WIND PRES REMARKS BEAUFORT HVY RAIN 63 63 100 SW10 29.95F FOG CEDAR ISLAND NOT AVBL JACKSONVILLE LGT RAIN 51 51 100 CALM 29.93F FOG PINEY ISLAND LGT RAIN N/A N/A N/A SW5 29.94F WILMINGTON LGT RAIN 63 63 100 S12 29.90F $$ NCZ011>013-027>030-043-044-078>080-089-090>093-098-051000- COASTAL PLAIN CITY SKY/WX TMP DP RH WIND PRES REMARKS AHOSKIE RAIN 42 42 98 N5 30.01R CLINTON LGT RAIN 46 46 100 N3 29.97R ELIZABETHTOWN HVY RAIN 46 46 100 NW5 29.96R GOLDSBORO RAIN 46 46 100 N7 29.94F GREENVILLE LGT RAIN 45 45 100 NW5 29.99S HAVELOCK HVY RAIN 54 53 97 E3 29.95F FOG KENANSVILLE HVY RAIN 48 46 93 N5 29.93F FOG KINSTON RAIN 48 47 99 NW5 29.96F NEW BERN HVY RAIN 50 49 96 CALM 29.96F FOG RICHLANDS RAIN 50 50 100 NE5 29.91F FOG ROCKY MOUNT LGT RAIN 44 44 100 N7 29.99F FOG WASHINGTON LGT RAIN 46 45 97 E5 29.95F WHITEVILLE RAIN 50 49 97 NW5 29.96R $$ AMZ130-135-150-152-154-156-158-170-250-252-270-ANZ085-086-088-633-658-670-051000- MARINE OBSERVATIONS STATION/POSITION TIME TEMP WIND PRES WAVE SWELL AIR SEA DIR/SP/G HT/PER HT/PER (UTC) (F) (DEG/KT/KT) (MB) (FT/S) (FT/S) CHESAPEAKE LIGHT NOT AVBL 64 E VA BEACH 0850 54 60 110/ 14/ 17 1015.6 3/ 8 2/ 8 DUCK 0900 52 54 110/ 14/ 17 1014.0 2 E DUCK NOT AVBL OREGON INLET 0900 56 54 100/ 2/ 5 1014.5 13E OREGON INLT NOT AVBL HATTERAS CG 0900 64 58 200/ 12/ 20 1013.9 DIAMOND BUOY 0850 69 74 190/ 25/ 29 1014.2 5/ 4 2/ 8 CAPE LOOKOUT 0900 63 210/ 6/ 8 1013.7 BEAUFORT LAB 0900 61 55 210/ 3/ 7 1012.8 30 SE NEW RVR IN 0808 67 74 210/ 23/ 29 1014.4 30 SE NEW RVR IN NOT AVBL 27 SE WRIGHTSVLE 0908 71 68 190/ 21/ 29 1012.7 5 SE WRIGHTSVLE 0808 61 63 180/ 10/ 14 1013.3 225 S CAPE HAT 0850 70 73 180/ 17/ 21 1018.1 4/ 9 3/ 9 41 SE CHARLESTON 0850 75 74 200/ 21/ 27 1013.5 8/ 7 $$

USA.gov is the U.S. government's official web portal to all federal, state and local government web resources and services.